Flag for Brazil Weather past 2 weeks in Maceió, Alagoas, Brazil

Now
64 °F

Passing clouds.


Feels Like: 64 °F
Forecast: 68 / 78 °F
Wind: 3 mph from West

Location: Maceio Aeroporto

Current Time: Aug 5, 2015 at 12:15:34 AM

Latest Report: Aug 5, 2015 at 12:00 AM


Visibility: N/A

Pressure: 30.09 "Hg

Humidity: 94%

Dew point: 63 °F

Location of MaceióLocation

Historic Weather in Maceió — Graph

°F

Maceió temperature yesterday

Maximum temperature yesterday: 81 °F (at 2:00 PM)
Minimum temperature yesterday: 63 °F (at 5:00 AM)
Average temperature yesterday: 72 °F

Past Weeks' High & Low Weather Summary

 TemperatureHumidityPressure
High86 °F (Jul 27, 5:00 AM)100% (Jul 21, 7:00 AM)30.12 "Hg (Jul 21, 7:00 AM)
Low61 °F (Aug 2, 7:00 AM)51% (Aug 4, 3:00 PM)29.98 "Hg (Jul 26, 3:00 PM)
Average72 °F85%30.06 "Hg
* Reported Jul 20 11:00 PM — Aug 4 11:00 PM, Maceió, Weather by CustomWeather, © 2015

Note: Actual official high and low records may vary slightly from our data, if they occured in-between our weather recording intervals... More about our weather records

Advertising

Maceió weather history for previous 24 hours

 ConditionsComfort  
Time TempWeatherWind HumidityBarometerVisibility
11:00 PM
Tue, Aug 4
66 °FPassing clouds.2 mph94%30.09 "HgN/A
10:00 PM66 °FPassing clouds.2 mph88%30.09 "HgN/A
9:00 PM68 °FClear.No wind88%30.09 "Hg10 mi
8:00 PM70 °FClear.3 mph83%30.09 "Hg10 mi
7:00 PM70 °FClear.3 mph83%30.07 "Hg10 mi
6:00 PM73 °FClear.7 mph74%30.07 "Hg10 mi
5:00 PM75 °FPassing clouds.8 mph65%30.04 "HgN/A
4:00 PM79 °FPassing clouds.8 mph54%30.04 "HgN/A
3:00 PM79 °FScattered clouds.14 mph51%30.04 "HgN/A
2:00 PM81 °FScattered clouds.9 mph54%30.07 "HgN/A
1:00 PM79 °FScattered clouds.10 mph54%30.07 "HgN/A
12:00 PM79 °FScattered clouds.6 mph54%30.09 "HgN/A
11:00 AM79 °FScattered clouds.6 mph54%30.12 "HgN/A
10:00 AM79 °FPassing clouds.7 mph54%30.12 "HgN/A
9:00 AM77 °FPassing clouds.5 mph61%30.12 "HgN/A
8:00 AM73 °FPassing clouds.3 mph74%30.12 "HgN/A
7:00 AM68 °FSunny.2 mph94%30.09 "Hg10 mi
6:00 AM63 °FPassing clouds.5 mph94%30.09 "HgN/A
5:00 AM63 °FPassing clouds.3 mph94%30.07 "HgN/A
4:00 AM64 °FPassing clouds.5 mph94%30.07 "HgN/A
3:00 AM64 °FClear.3 mph94%30.07 "Hg10 mi
2:00 AM66 °FClear.2 mph88%30.09 "Hg10 mi
1:00 AM68 °FClear.No wind88%30.09 "Hg10 mi
12:00 AM70 °FPassing clouds.2 mph83%30.12 "HgN/A
Weather by CustomWeather, © 2015

See weather overviewHow to use our weather pages